Home   Weather   Crete   Past weeks
Flag for Greece

Past Weather in Crete, Greece — Yesterday and Last 2 Weeks

Currently: 81 °F. Clear. (Weather station: Heraklion Airport, Greece). See more current weather

Past Weather in Crete — Graph

°F

Crete Temperature Yesterday

Maximum temperature yesterday: 84 °F (at 1:50 pm)
Minimum temperature yesterday: 81 °F (at 12:50 am)
Average temperature yesterday: 82 °F

High & Low Weather Summary for the Past Weeks

 TemperatureHumidityPressure
High99 °F (Jun 13, 10:20 am)88% (Jun 17, 4:50 am)29.95 "Hg (Jun 17, 4:50 am)
Low68 °F (Jun 10, 5:50 am)19% (Jun 13, 10:50 am)29.80 "Hg (Jun 8, 5:50 pm)
Average82 °F54%29.88 "Hg
* Reported Jun 5 2:20 am — Jun 20 2:20 am, Crete. Weather by CustomWeather, © 2024

Note: Actual official high and low records may vary slightly from our data, if they occured in-between our weather recording intervals... More about our weather records

Crete Weather History for the Previous 24 Hours

Scroll right to see more
 ConditionsComfort  
Time TempWeatherWind HumidityBarometerVisibility
2:20 am
Thu, Jun 20
81 °FClear.15 mph58%29.86 "Hg10 mi
1:50 am81 °FClear.14 mph58%29.89 "Hg10 mi
1:20 am81 °FClear.13 mph58%29.89 "Hg10 mi
12:20 am81 °FClear.15 mph58%29.89 "Hg10 mi
11:50 pm
Wed, Jun 19
81 °FClear.13 mph58%29.89 "Hg10 mi
11:20 pm82 °FClear.16 mph55%29.92 "Hg10 mi
10:50 pm81 °FClear.12 mph54%29.92 "Hg10 mi
10:20 pm81 °FClear.15 mph54%29.92 "Hg10 mi
9:50 pm81 °FClear.15 mph54%29.89 "Hg10 mi
9:20 pm82 °FClear.15 mph55%29.89 "Hg10 mi
8:50 pm81 °FClear.15 mph62%29.89 "Hg10 mi
8:20 pm82 °FSunny.12 mph55%29.89 "Hg10 mi
7:50 pm82 °FSunny.13 mph58%29.89 "Hg10 mi
7:20 pm82 °FSunny.18 mph58%29.89 "Hg10 mi
6:50 pm82 °FSunny.21 mph58%29.89 "Hg10 mi
6:20 pm84 °FSunny.21 mph51%29.89 "Hg10 mi
5:50 pm84 °FSunny.18 mph51%29.89 "Hg10 mi
5:20 pm84 °FSunny.21 mph55%29.89 "Hg10 mi
4:50 pm84 °FSunny.20 mph58%29.89 "Hg10 mi
3:50 pm84 °FSunny.20 mph58%29.89 "Hg10 mi
3:20 pm84 °FSunny.18 mph58%29.89 "Hg10 mi
2:20 pm84 °FSunny.22 mph58%29.89 "Hg10 mi
1:50 pm84 °FSunny.22 mph58%29.89 "Hg10 mi
1:20 pm82 °FSunny.20 mph62%29.92 "Hg10 mi
12:50 pm82 °FSunny.20 mph62%29.92 "Hg10 mi
12:20 pm82 °FSunny.22 mph62%29.89 "Hg10 mi
11:50 am82 °FSunny.21 mph62%29.89 "Hg10 mi
11:20 am82 °FSunny.22 mph62%29.89 "Hg10 mi
10:50 am82 °FSunny.20 mph58%29.89 "Hg10 mi
10:20 am82 °FSunny.18 mph58%29.89 "Hg10 mi
9:50 am82 °FSunny.20 mph58%29.89 "Hg10 mi
9:20 am82 °FSunny.18 mph58%29.89 "Hg10 mi
8:20 am82 °FSunny.18 mph55%29.89 "Hg10 mi
7:50 am81 °FSunny.16 mph58%29.86 "Hg10 mi
7:20 am81 °FSunny.16 mph58%29.86 "Hg10 mi
6:50 am81 °FSunny.15 mph54%29.86 "Hg10 mi
6:20 am81 °FSunny.14 mph54%29.86 "Hg10 mi
5:50 am81 °FClear.16 mph51%29.86 "Hg10 mi
5:20 am81 °FClear.14 mph51%29.86 "Hg10 mi
4:50 am81 °FClear.14 mph51%29.86 "Hg10 mi
4:20 am81 °FClear.14 mph51%29.86 "Hg10 mi
3:50 am81 °FClear.15 mph51%29.86 "Hg10 mi
3:20 am82 °FClear.15 mph48%29.86 "Hg10 mi
Weather by CustomWeather, © 2024

See weather overview